Tracking 31027 objects as of 19-Jul-2025
HD Live streaming from Space Station
objects crossing your sky now

ONEWEB-0175

Track ONEWEB-0175 now!
10-day predictions
ONEWEB-0175 is classified as:


NORAD ID: 48073
Int'l Code: 2021-025AH
Perigee: 1,215.3 km
Apogee: 1,218.5 km
Inclination: 87.9 °
Period: 109.6 minutes
Semi major axis: 7587 km
RCS: Unknown
Launch date: March 25, 2021
Source: United States (US)
Launch site: VOSTOCHNY COSMODROME (VOSTO)
Your satellite tracking list
STARLINK-3349
Track 1 satellite(s)




NASA's NSSDC Master Catalog

Two Line Element Set (TLE):
1 48073U 21025AH  25199.50430290  .00000322  00000-0  84688-3 0  9995
2 48073  87.8950  26.4920 0002160  84.9661 275.1715 13.13471444209682
Source of the keplerian elements: AFSPC